Location: Arbon
(43.0005°N, 0.7472°E)
Time: 02:26:21
(UTC+00:00)

SAR-Lupe-4 - Pass Details

Date: 07 August 2020
Orbit: 481 x 485 km, 98.2° (Epoch: 16 September)

Event Time Altitude Azimuth Distance (km) Brightness Sun altitude
Rises 04:11:27 0° 163° (SSE) 2,529 7.1 -7.8°
Reaches altitude 10° 04:13:30 10° 162° (SSE) 1,654 6.1 -7.5°
Maximum altitude 04:17:02 81° 77° (ENE) 493 3.7 -7.0°
Drops below altitude 10° 04:20:38 10° 349° (N) 1,669 6.5 -6.4°
Sets 04:22:42 0° 348° (NNW) 2,553 7.5 -6.1°
